Location: Newark
(52.2090°N, 4.1550°W)
Time: 17:24:59
(UTC+00:00)

Transit 4A - Pass Details

Date: 29 October 2019
Orbit: 868 x 976 km, 66.8° (Epoch: 16 November)

Event Time Altitude Azimuth Distance (km) Brightness Sun altitude
Exits shadow 02:03:58 17° 75° (ENE) 2,185 10.2 -43.9°
Drops below altitude 10° 02:05:58 10° 59° (ENE) 2,662 10.9 -43.7°
Sets 02:08:59 0° 45° (NE) 3,592 11.8 -43.4°
